[[{"header":{"parameterUnit":"m.s-1","parameterCategory":1,"la1":30.2991,"la2":30.254,"lo1":-89.0895,"lo2":-89.0444,"dy":0.0017,"dx":0.0017,"nx":28,"ny":28,"refTime":"2024-07-01T09:00:00:Z","depth":0,"parameterNumber":2,"parameterNumberName":"U-component_of_WINDS"},"data":[0,0,0,0,0,0,0,0,0,0,0,0,0,0,0,0,0,0,0,0,0,0,0,0,0,0,0,0,0,0,0,0,0,0,0,0,0,0,0,0,0,0,0,0,0,0,0,0,0,0,0,0,0,0,0,0,0,0,-0.6515,-0.6515,0,-0.648,-0.648,-0.6479,-0.647,-0.647,-0.6471,-0.6471,-0.6434,-0.6432,-0.6431,0,0,0,0,0,0,0,0,0,0,0,0,0,-0.6575,-0.6574,-0.6516,-0.6515,-0.6515,-0.648,-0.648,-0.6479,-0.647,-0.6471,-0.6471,-0.6471,-0.6434,-0.6433,-0.6431,0,0,0,0,0,0,0,0,0,0,0,0,0,-0.6545,-0.6574,-0.6516,-0.6506,-0.6505,-0.648,-0.648,-0.6479,-0.647,-0.6471,-0.6471,-0.6471,-0.6435,-0.6433,-0.6431,-0.6413,0,0,-0.6426,-0.6425,0,0,0,0,0,0,0,0,-0.6547,-0.6543,-0.6508,-0.6507,-0.6505,-0.648,-0.6487,-0.6457,-0.647,-0.6483,-0.6471,-0.6471,-0.6449,-0.6446,-0.6438,-0.6412,-0.641,-0.6425,-0.6424,-0.6424,-0.6423,0,0,0,0,0,0,0,-0.6549,-0.6545,-0.6502,-0.6507,-0.6506,-0.6503,-0.65,-0.6481,-0.6465,-0.6482,-0.6481,-0.6477,-0.6448,-0.644,-0.6437,-0.6409,-0.6425,-0.6424,-0.6423,-0.6422,-0.6367,-0.6367,0,0,0,0,0,0,-0.6553,-0.6546,-0.6503,-0.65,-0.6527,-0.6502,-0.6498,-0.6488,-0.6465,-0.6462,-0.6477,-0.6477,-0.6443,-0.644,-0.6436,-0.6414,-0.6424,-0.6422,-0.6421,-0.6368,-0.6367,-0.6367,0,0,0,0,0,0,-0.6554,-0.6549,-0.6504,-0.6523,-0.6517,-0.6501,-0.649,-0.6487,-0.6479,-0.6461,-0.6458,-0.6472,-0.6443,-0.6439,-0.6419,-0.6413,-0.6421,-0.6419,-0.6368,-0.6368,-0.6367,-0.6371,0,0,0,0,0,0,-0.6556,-0.655,-0.6543,-0.6523,-0.6516,-0.6488,-0.6489,-0.6486,-0.6476,-0.6476,-0.6455,-0.6452,-0.6443,-0.6422,-0.6418,-0.6411,-0.6418,-0.6369,-0.6368,-0.6367,-0.6371,-0.637,-0.637,0,0,0,0,0,-0.6558,-0.6545,-0.6542,-0.6537,-0.6507,-0.6488,-0.6484,-0.6473,-0.6476,-0.6468,-0.6457,-0.6453,-0.6415,-0.642,-0.6415,-0.6407,-0.6369,-0.6368,-0.6367,-0.6371,-0.637,-0.637,0,0,0,0,0,0,-0.6563,-0.6542,-0.6539,-0.6519,-0.6505,-0.6486,-0.6477,-0.6473,-0.6458,-0.6458,-0.6446,-0.6441,-0.6423,-0.6413,-0.642,-0.639,-0.6392,-0.639,-0.6397,-0.6395,-0.6395,-0.6397,-0.6416,0,0,0,0,0,-0.6562,-0.6548,-0.653,-0.6514,-0.6507,-0.6493,-0.6484,-0.6478,-0.6463,-0.6457,-0.6444,-0.643,-0.6414,-0.6404,-0.6389,-0.637,-0.6365,-0.6362,-0.6361,-0.6361,-0.6359,-0.6349,-0.6347,-0.6364,-0.6364,-0.6364,0,0,-0.6559,-0.6546,-0.6537,-0.6514,-0.6503,-0.6489,-0.6488,-0.6473,-0.6462,-0.6454,-0.6436,-0.6426,-0.6409,-0.639,-0.6381,-0.6381,-0.6354,-0.636,-0.636,-0.6358,-0.6348,-0.6346,-0.6345,-0.6364,-0.6364,-0.6364,0,0,-0.6547,-0.6535,-0.6521,-0.651,-0.6493,-0.6484,-0.6481,-0.6462,-0.6456,-0.6437,-0.6431,-0.6418,-0.6392,-0.638,-0.6371,-0.6356,-0.6352,-0.6351,-0.6347,-0.6337,-0.6336,-0.6335,-0.633,-0.6328,-0.635,-0.635,-0.635,0,-0.6545,-0.6523,-0.6514,-0.6499,-0.6489,-0.6483,-0.6468,-0.6458,-0.6437,-0.643,-0.6431,-0.6399,-0.6387,-0.6365,-0.6362,-0.6354,-0.635,-0.6353,-0.6337,-0.6336,-0.6335,-0.6329,-0.6327,-0.635,-0.635,-0.635,-0.635,0,-0.6523,-0.6508,-0.6498,-0.6479,-0.6468,-0.6453,-0.6442,-0.6432,-0.6427,-0.6418,-0.6399,-0.6385,-0.6368,-0.6362,-0.6356,-0.634,-0.6341,-0.634,-0.6341,-0.6333,-0.6328,-0.6326,-0.635,-0.635,-0.635,-0.635,0,0,-0.6511,-0.6487,-0.6484,-0.6476,-0.6457,-0.6445,-0.6431,-0.6414,-0.6406,-0.6393,-0.638,-0.6359,-0.6358,-0.6348,-0.6341,-0.6332,-0.6322,-0.6332,-0.6332,-0.6331,-0.6303,-0.6303,-0.6301,-0.6319,-0.6319,-0.6318,-0.6304,0,-0.6496,-0.647,-0.6462,-0.644,-0.6427,-0.6421,-0.6408,-0.6396,-0.6387,-0.6375,-0.6365,-0.635,-0.6351,-0.6344,-0.6335,-0.6325,-0.6316,-0.6326,-0.6307,-0.6307,-0.6311,-0.6299,-0.6299,-0.6286,-0.6302,-0.6302,-0.6302,0,-0.6475,-0.6462,-0.6439,-0.6423,-0.6417,-0.6406,-0.6391,-0.6379,-0.6364,-0.6359,-0.6348,-0.6342,-0.6327,-0.6331,-0.631,-0.6317,-0.6309,-0.6303,-0.6302,-0.6299,-0.6303,-0.6296,-0.6282,-0.628,-0.6298,-0.6299,-0.6299,0,-0.6469,-0.6445,-0.6429,-0.6422,-0.6403,-0.6395,-0.6387,-0.6373,-0.6364,-0.6351,-0.6345,-0.633,-0.6321,-0.631,-0.63,-0.6303,-0.628,-0.6283,-0.6275,-0.6275,-0.627,-0.627,-0.6254,-0.6265,-0.6265,-0.6265,-0.6265,0,-0.6453,-0.644,-0.6426,-0.6416,-0.6401,-0.6391,-0.6376,-0.6368,-0.6356,-0.6344,-0.6338,-0.6327,-0.6315,-0.6303,-0.6295,-0.628,-0.6276,-0.6271,-0.6269,-0.6271,-0.6272,-0.6265,-0.6266,-0.6265,-0.6265,-0.6265,-0.6265,0,-0.6444,-0.6434,-0.6416,-0.64,-0.6396,-0.6385,-0.6372,-0.6362,-0.6354,-0.6339,-0.6335,-0.6322,-0.6307,-0.6297,-0.6277,-0.6272,-0.6255,-0.6253,-0.626,-0.6259,-0.6252,-0.6253,-0.6231,-0.6228,-0.6241,-0.6241,-0.6241,0,-0.6434,-0.6424,-0.6407,-0.6399,-0.6391,-0.6378,-0.6369,-0.636,-0.635,-0.6334,-0.6326,-0.6311,-0.6299,-0.6275,-0.6264,-0.6249,-0.6247,-0.6241,-0.6245,-0.6248,-0.6247,-0.6248,-0.6247,-0.624,-0.624,-0.624,-0.6239,0,-0.6418,-0.6414,-0.6401,-0.6387,-0.6377,-0.6365,-0.6353,-0.6347,-0.6336,-0.6326,-0.6311,-0.6302,-0.6282,-0.6268,-0.6252,-0.6244,-0.624,-0.6238,-0.6236,-0.6238,-0.6242,-0.624,-0.6258,-0.6239,-0.6239,-0.6239,-0.6239,-0.6239,-0.6408,-0.6399,-0.6386,-0.6372,-0.6363,-0.6352,-0.6342,-0.6333,-0.6321,-0.6305,-0.63,-0.6285,-0.6272,-0.6251,-0.6243,-0.623,-0.6231,-0.6227,-0.6226,-0.6225,-0.6225,-0.6245,-0.6228,-0.6228,-0.6228,-0.6228,-0.6228,0,-0.6392,-0.6384,-0.6371,-0.6355,-0.6345,-0.6343,-0.633,-0.6321,-0.6308,-0.6297,-0.6285,-0.6268,-0.6254,-0.6242,-0.6228,-0.622,-0.6218,-0.6217,-0.6217,-0.6215,-0.6226,-0.6229,-0.6219,-0.6219,-0.6219,-0.6219,-0.6219,-0.6219,-0.6382,-0.6366,-0.6361,-0.6341,-0.6333,-0.6318,-0.6311,-0.6301,-0.6292,-0.6274,-0.6262,-0.6255,-0.6244,-0.6229,-0.6216,-0.6213,-0.6207,-0.6206,-0.6203,-0.6213,-0.6214,-0.6215,-0.6218,-0.6205,-0.6205,-0.6193,-0.6193,-0.6193]},{"header":{"parameterUnit":"m.s-1","parameterCategory":1,"la1":30.2991,"la2":30.254,"lo1":-89.0895,"lo2":-89.0444,"dy":0.0017,"dx":0.0017,"nx":28,"ny":28,"refTime":"2024-07-01T09:00:00:Z","depth":0,"parameterNumber":3,"parameterNumberName":"V-component_of_WINDS"},"data":[0,0,0,0,0,0,0,0,0,0,0,0,0,0,0,0,0,0,0,0,0,0,0,0,0,0,0,0,0,0,0,0,0,0,0,0,0,0,0,0,0,0,0,0,0,0,0,0,0,0,0,0,0,0,0,0,0,0,4.3568,4.3569,0,4.3656,4.3657,4.3658,4.363,4.3628,4.3626,4.3624,4.3709,4.3712,4.3716,0,0,0,0,0,0,0,0,0,0,0,0,0,4.3368,4.3372,4.3568,4.3569,4.357,4.3656,4.3657,4.3658,4.363,4.3628,4.3625,4.3623,4.3707,4.3712,4.3717,0,0,0,0,0,0,0,0,0,0,0,0,0,4.3455,4.3373,4.3567,4.3566,4.3567,4.3656,4.3657,4.3659,4.363,4.3628,4.3625,4.3622,4.3706,4.3712,4.3717,4.3811,0,0,4.3736,4.3738,0,0,0,0,0,0,0,0,4.345,4.3463,4.3565,4.3567,4.3568,4.3629,4.3618,4.3709,4.3631,4.3606,4.3624,4.3621,4.3684,4.3692,4.3714,4.3815,4.3818,4.3736,4.374,4.3742,4.3744,0,0,0,0,0,0,0,4.3444,4.3459,4.3602,4.3567,4.3568,4.3559,4.3569,4.3635,4.366,4.3608,4.3606,4.3618,4.3684,4.3708,4.3716,4.3819,4.3736,4.3741,4.3745,4.3747,4.3999,4.4002,0,0,0,0,0,0,4.3439,4.3454,4.36,4.3605,4.3501,4.3565,4.3576,4.3612,4.3659,4.3663,4.362,4.3616,4.37,4.3709,4.3719,4.383,4.3742,4.3748,4.3751,4.3996,4.4,4.4003,0,0,0,0,0,0,4.3434,4.3452,4.3596,4.3529,4.3547,4.3572,4.3613,4.3615,4.364,4.3668,4.3671,4.3641,4.3698,4.371,4.3788,4.3832,4.3751,4.3756,4.3992,4.3997,4.4001,4.4054,0,0,0,0,0,0,4.3429,4.3451,4.3488,4.353,4.3551,4.3666,4.3616,4.3619,4.3651,4.3647,4.3688,4.3692,4.3697,4.3779,4.3794,4.3839,4.3761,4.3988,4.3994,4.4,4.4048,4.406,4.4069,0,0,0,0,0,4.3422,4.3498,4.349,4.3508,4.3598,4.3669,4.368,4.3685,4.3655,4.3691,4.3709,4.3691,4.3826,4.3788,4.3804,4.3852,4.3986,4.3993,4.3999,4.4043,4.4057,4.4069,0,0,0,0,0,0,4.3458,4.3503,4.3495,4.3588,4.3625,4.3664,4.371,4.37,4.3745,4.3738,4.3741,4.375,4.383,4.3848,4.3805,4.3943,4.3901,4.3911,4.3928,4.3942,4.3952,4.3946,4.3766,0,0,0,0,0,4.3477,4.3533,4.3569,4.3647,4.3666,4.3685,4.3716,4.3717,4.3754,4.3769,4.3793,4.3828,4.3878,4.3911,4.3959,4.4051,4.4058,4.4092,4.4102,4.4111,4.4119,4.4168,4.4183,4.4026,4.4026,4.4026,0,0,4.3516,4.3548,4.3583,4.3655,4.3684,4.3739,4.3698,4.3759,4.38,4.3778,4.3853,4.3872,4.3911,4.3996,4.4035,4.4014,4.4165,4.412,4.4126,4.413,4.4177,4.4191,4.4205,4.4031,4.403,4.4029,0,0,4.3617,4.3647,4.3715,4.3745,4.379,4.3802,4.3818,4.3859,4.3871,4.3947,4.3932,4.3979,4.4066,4.4094,4.412,4.4231,4.4215,4.4246,4.4301,4.4349,4.4361,4.4372,4.441,4.4424,4.4255,4.4255,4.4255,0,4.3659,4.3745,4.3751,4.3813,4.3844,4.3829,4.3897,4.3925,4.3982,4.4003,4.398,4.4088,4.4114,4.4204,4.4231,4.4253,4.427,4.4241,4.4359,4.437,4.438,4.4417,4.4431,4.4258,4.4258,4.4258,4.4257,0,4.3794,4.3853,4.3902,4.396,4.3997,4.4062,4.4075,4.4112,4.4109,4.4123,4.4199,4.423,4.4283,4.4305,4.4302,4.4395,4.4381,4.4358,4.4315,4.4398,4.4433,4.4447,4.4263,4.4262,4.4261,4.426,0,0,4.3919,4.398,4.3998,4.4023,4.4072,4.4116,4.4179,4.4233,4.4263,4.4303,4.4355,4.4429,4.4408,4.4438,4.4438,4.448,4.4564,4.4452,4.4453,4.4471,4.4666,4.4682,4.4698,4.4554,4.4557,4.4559,4.4663,0,4.4022,4.4135,4.4142,4.4244,4.4298,4.4284,4.4338,4.4373,4.4387,4.4433,4.4448,4.45,4.447,4.4487,4.4528,4.4545,4.4603,4.4538,4.46,4.4602,4.459,4.4716,4.4734,4.483,4.4676,4.4678,4.468,0,4.4158,4.4204,4.4311,4.4351,4.4374,4.4423,4.4473,4.4518,4.4555,4.4563,4.4596,4.459,4.4653,4.4608,4.4693,4.4649,4.4675,4.4687,4.469,4.4696,4.4646,4.4724,4.4861,4.4875,4.4701,4.47,4.4698,0,4.4237,4.4325,4.4401,4.4423,4.4472,4.4507,4.4528,4.4564,4.4596,4.4638,4.4658,4.4707,4.4733,4.477,4.4777,4.4744,4.4861,4.4818,4.4868,4.4868,4.4892,4.489,4.5034,4.4911,4.4911,4.491,4.491,0,4.435,4.4416,4.4437,4.4483,4.4556,4.4563,4.4634,4.4652,4.4684,4.4732,4.4723,4.4768,4.4775,4.482,4.4826,4.4895,4.4907,4.4913,4.4913,4.4914,4.4913,4.493,4.4923,4.4914,4.4913,4.4912,4.4912,0,4.4451,4.4467,4.4548,4.4589,4.46,4.4652,4.4685,4.4728,4.4742,4.4803,4.4817,4.4838,4.4892,4.4903,4.4965,4.4969,4.505,4.5045,4.5038,4.5037,4.5086,4.5081,4.5245,4.5266,4.513,4.5131,4.5132,0,4.4522,4.4572,4.4618,4.4651,4.4675,4.4727,4.476,4.4768,4.4802,4.4849,4.4886,4.4939,4.4982,4.5068,4.5087,4.5135,4.5129,4.5184,4.5136,4.5134,4.5129,4.5125,4.513,4.5192,4.5194,4.5195,4.5196,0,4.4646,4.4652,4.47,4.4752,4.4792,4.4832,4.4871,4.4897,4.491,4.4948,4.5004,4.5038,4.5103,4.5154,4.5202,4.5222,4.5211,4.5211,4.5225,4.5224,4.5218,4.5221,4.5062,4.5207,4.5206,4.5205,4.5204,4.5204,4.4733,4.4777,4.4816,4.4871,4.4901,4.4937,4.498,4.4999,4.5046,4.5101,4.5102,4.5163,4.5198,4.5261,4.5284,4.533,4.5313,4.5333,4.5338,4.5343,4.5347,4.5212,4.5339,4.5339,4.5338,4.5338,4.5338,0,4.4856,4.488,4.493,4.4985,4.5028,4.5015,4.5057,4.5092,4.5147,4.5181,4.5224,4.5287,4.5338,4.5361,4.5411,4.5443,4.5439,4.5455,4.5452,4.5457,4.536,4.5343,4.5458,4.5458,4.5458,4.5458,4.5458,4.5458,4.4924,4.4998,4.5008,4.5096,4.512,4.5181,4.5205,4.5238,4.5266,4.5338,4.538,4.5396,4.5426,4.5477,4.5522,4.5527,4.5545,4.5564,4.5567,4.5476,4.5464,4.5452,4.5436,4.5568,4.5569,4.566,4.5661,4.5661]}]]